This is the latest recevied weather packets stored in our database for station/object HB9FHL-13. If no packets are shown the sender has not sent any weather packets the latest 10 day(s).
| Time | Temp. | Humidity | Pressure | Rain* | Wind** | Luminosity | Snow |
|---|---|---|---|---|---|---|---|
| 1777381721 | 17.22° C | - | 1016.7 hPa | 0 mm | - | - | - |
| 1777381420 | 17.22° C | - | 1019.7 hPa | 0 mm | - | - | - |
| 1777381121 | 17.22° C | - | 1016.4 hPa | 0 mm | - | - | - |
| 1777380872 | 17.78° C | - | 1017.6 hPa | 0 mm | - | - | - |
| 1777380817 | 17.78° C | - | 1017.6 hPa | 0 mm | - | - | - |
| 1777380518 | 17.22° C | - | 1014.2 hPa | 0 mm | - | - | - |
| 1777380216 | 16.67° C | - | 1017.6 hPa | 0 mm | - | - | - |
| 1777379916 | 17.78° C | - | 1015.9 hPa | 0 mm | - | - | - |
| 1777379615 | 16.67° C | - | 1019.8 hPa | 0 mm | - | - | - |
| 1777379375 | 16.67° C | - | 1017.8 hPa | 0 mm | - | - | - |
| 1777379315 | 16.67° C | - | 1017.8 hPa | 0 mm | - | - | - |
| 1777379015 | 17.78° C | - | 1014.3 hPa | 0 mm | - | - | - |
| 1777378714 | 17.22° C | - | 1012.7 hPa | 0 mm | - | - | - |
| 1777378413 | 16.67° C | - | 1016.6 hPa | 0 mm | - | - | - |
| 1777378113 | 16.67° C | - | 1017.7 hPa | 0 mm | - | - | - |
| 1777377811 | 16.67° C | - | 1014.6 hPa | 0 mm | - | - | - |
| 1777377510 | 17.22° C | - | 1019.8 hPa | 0 mm | - | - | - |
| 1777377210 | 16.67° C | - | 1014.7 hPa | 0 mm | - | - | - |
| 1777376910 | 16.67° C | - | 1016.7 hPa | 0 mm | - | - | - |
| 1777376609 | 15.56° C | - | 1014.3 hPa | 0 mm | - | - | - |
| 1777376308 | 16.11° C | - | 1012.2 hPa | 0 mm | - | - | - |
| 1777376008 | 16.11° C | - | 1013.3 hPa | 0 mm | - | - | - |
| 1777375753 | 16.67° C | - | 1013.9 hPa | 0 mm | - | - | - |
| 1777375708 | 16.67° C | - | 1013.9 hPa | 0 mm | - | - | - |
| 1777375407 | 16.11° C | - | 1016.3 hPa | 0 mm | - | - | - |
* Rain since midnight (hover to see other rain measurements)
** Current wind speed in m/s (hover to see current wind gust speed)